When you browse on this site, cookies collect data to enhance your experience and personalize the content and advertising you see.
Visit our Privacy Policy to learn more. By continuing to use the site, you agree to this use of cookies and data.
  • In United Kingdom
  • List of Countries
  • For 7 days
  • Water Temperature
  • Satellite Maps
  • Weather Map
  • Weather Widgets
  • user-avatar
    Login

    Hourly Weather Yeghegnadzor

    Today, 18 December, Tuesday

    Time Temperature Precipitation Wind Pressure Humidity
    00:00 +4°C° 0.7 mm 1 mps 653 mmHg 86%
    01:00 +4°C° 0.6 mm 1 mps 653 mmHg 87%
    02:00 +4°C° 0.6 mm 1 mps 653 mmHg 89%
    03:00 +4°C° 0 mm 1 mps 653 mmHg 90%
    04:00 +4°C° 0.4 mm 1 mps 653 mmHg 90%
    05:00 +4°C° 0.4 mm 1 mps 653 mmHg 91%
    06:00 +4°C° 0.4 mm 1 mps 653 mmHg 91%
    07:00 +4°C° 0.2 mm 1 mps 653 mmHg 90%
    08:00 +4°C° 0.2 mm 1 mps 653 mmHg 89%
    09:00 +5°C° 0 mm 1 mps 653 mmHg 87%
    10:00 +5°C° 0.2 mm 1 mps 653 mmHg 86%
    11:00 +6°C° 0.2 mm 1 mps 653 mmHg 85%
    12:00 +5°C° 0.2 mm 2 mps 653 mmHg 84%
    13:00 +5°C° 0.1 mm 2 mps 653 mmHg 83%
    14:00 +6°C° 0.1 mm 1 mps 653 mmHg 82%
    15:00 +6°C° 0.1 mm 1 mps 653 mmHg 81%
    16:00 +6°C° 0.1 mm 1 mps 653 mmHg 83%
    17:00 +5°C° 0.1 mm 1 mps 654 mmHg 85%
    18:00 +4°C° 0.1 mm 1 mps 654 mmHg 86%
    19:00 +4°C° 0.1 mm 1 mps 654 mmHg 86%
    20:00 +4°C° 0.1 mm 1 mps 654 mmHg 85%
    21:00 +3°C° 0.1 mm 1 mps 654 mmHg 84%
    22:00 +2°C° 0.1 mm 2 mps 655 mmHg 84%
    23:00 +2°C° 0.1 mm 2 mps 655 mmHg 85%

    Tomorrow, 19 December, Wednesday

    Time Temperature Precipitation Wind Pressure Humidity
    00:00 +2°C° 0.1 mm 2 mps 655 mmHg 85%
    01:00 +2°C° 0 mm 2 mps 655 mmHg 85%
    02:00 +2°C° 0 mm 2 mps 655 mmHg 86%
    03:00 +2°C° 0 mm 2 mps 655 mmHg 86%
    04:00 +2°C° 0 mm 2 mps 655 mmHg 86%
    05:00 +2°C° 0 mm 2 mps 655 mmHg 86%
    06:00 +1°C° 0 mm 2 mps 655 mmHg 86%
    07:00 +2°C° 0 mm 2 mps 656 mmHg 84%
    08:00 +3°C° 0 mm 2 mps 656 mmHg 82%
    09:00 +3°C° 0 mm 2 mps 656 mmHg 80%
    10:00 +4°C° 0 mm 2 mps 656 mmHg 79%
    11:00 +5°C° 0 mm 2 mps 656 mmHg 78%
    12:00 +6°C° 0 mm 2 mps 656 mmHg 77%
    13:00 +6°C° 0 mm 2 mps 655 mmHg 77%
    14:00 +6°C° 0 mm 2 mps 655 mmHg 76%
    15:00 +7°C° 0 mm 1 mps 655 mmHg 76%
    16:00 +5°C° 0 mm 2 mps 655 mmHg 77%
    17:00 +4°C° 0 mm 2 mps 655 mmHg 77%
    18:00 +2°C° 0 mm 2 mps 655 mmHg 78%
    19:00 +2°C° 0 mm 2 mps 655 mmHg 75%
    20:00 +2°C° 0 mm 2 mps 655 mmHg 72%
    21:00 +2°C° 0 mm 2 mps 655 mmHg 69%
    22:00 +2°C° 0 mm 2 mps 655 mmHg 69%
    23:00 +2°C° 0 mm 2 mps 654 mmHg 69%

    Day after tomorrow, 20 December, Thursday

    Time Temperature Precipitation Wind Pressure Humidity
    00:00 +1°C° 0 mm 2 mps 654 mmHg 69%
    01:00 +1°C° 0 mm 2 mps 654 mmHg 68%
    02:00 +1°C° 0 mm 2 mps 654 mmHg 68%
    03:00 +1°C° 0 mm 2 mps 654 mmHg 68%
    04:00 +1°C° 0 mm 2 mps 654 mmHg 68%
    05:00 +1°C° 0 mm 2 mps 654 mmHg 68%
    06:00 +1°C° 0 mm 2 mps 654 mmHg 67%
    07:00 +2°C° 0 mm 2 mps 654 mmHg 68%
    08:00 +4°C° 0 mm 1 mps 654 mmHg 68%
    09:00 +5°C° 0 mm 1 mps 654 mmHg 68%
    10:00 +5°C° 0.1 mm 1 mps 654 mmHg 69%
    11:00 +6°C° 0.1 mm 1 mps 654 mmHg 69%
    12:00 +7°C° 0.1 mm 1 mps 654 mmHg 70%
    13:00 +7°C° 0.1 mm 1 mps 653 mmHg 70%
    14:00 +7°C° 0.1 mm 1 mps 653 mmHg 69%
    15:00 +7°C° 0.1 mm 1 mps 652 mmHg 69%
    16:00 +6°C° 0 mm 1 mps 652 mmHg 72%
    17:00 +5°C° 0 mm 1 mps 652 mmHg 74%
    18:00 +4°C° 0 mm 1 mps 652 mmHg 77%
    19:00 +4°C° 0.1 mm 1 mps 652 mmHg 76%
    20:00 +3°C° 0.1 mm 1 mps 652 mmHg 76%
    21:00 +3°C° 0.1 mm 1 mps 653 mmHg 76%
    22:00 +3°C° 0.1 mm 1 mps 653 mmHg 77%
    23:00 +3°C° 0.1 mm 1 mps 653 mmHg 78%

    21 December, Friday

    Time Temperature Precipitation Wind Pressure Humidity
    00:00 +2°C° 0.1 mm 1 mps 653 mmHg 78%
    01:00 +2°C° 0.1 mm 1 mps 653 mmHg 79%
    02:00 +2°C° 0.1 mm 1 mps 653 mmHg 80%
    03:00 +2°C° 0.1 mm 1 mps 653 mmHg 81%
    04:00 +2°C° 0.2 mm 1 mps 653 mmHg 82%
    05:00 +2°C° 0.2 mm 1 mps 653 mmHg 83%
    06:00 +2°C° 0.2 mm 1 mps 653 mmHg 83%
    07:00 +2°C° 0.2 mm 1 mps 654 mmHg 82%
    08:00 +3°C° 0.2 mm 1 mps 654 mmHg 80%
    09:00 +3°C° 0.2 mm 1 mps 655 mmHg 78%
    10:00 +4°C° 0.1 mm 1 mps 655 mmHg 77%
    11:00 +5°C° 0.1 mm 1 mps 654 mmHg 76%
    12:00 +5°C° 0.1 mm 1 mps 654 mmHg 75%
    13:00 +5°C° 0 mm 1 mps 654 mmHg 75%
    14:00 +5°C° 0 mm 1 mps 654 mmHg 75%
    15:00 +5°C° 0 mm 1 mps 654 mmHg 75%
    16:00 +4°C° 0 mm 1 mps 654 mmHg 78%
    17:00 +3°C° 0 mm 1 mps 654 mmHg 81%
    18:00 +2°C° 0 mm 1 mps 654 mmHg 84%
    19:00 +1°C° 0 mm 1 mps 654 mmHg 83%
    20:00 +1°C° 0 mm 1 mps 654 mmHg 82%
    21:00 +1°C° 0 mm 1 mps 654 mmHg 81%
    22:00 0°C° 0 mm 1 mps 654 mmHg 81%
    23:00 0°C° 0 mm 1 mps 654 mmHg 80%

    22 December, Saturday

    Time Temperature Precipitation Wind Pressure Humidity
    00:00 0°C° 0 mm 1 mps 653 mmHg 80%
    01:00 -1°C° 0 mm 1 mps 653 mmHg 79%
    02:00 -1°C° 0 mm 1 mps 653 mmHg 79%
    03:00 -1°C° 0 mm 1 mps 653 mmHg 78%
    04:00 -1°C° 0 mm 1 mps 653 mmHg 77%
    05:00 -1°C° 0 mm 1 mps 653 mmHg 76%
    06:00 -1°C° 0 mm 1 mps 652 mmHg 75%
    07:00 0°C° 0 mm 1 mps 653 mmHg 73%
    08:00 +1°C° 0 mm 1 mps 653 mmHg 71%
    09:00 +2°C° 0 mm 1 mps 653 mmHg 69%
    10:00 +3°C° 0 mm 1 mps 653 mmHg 69%
    11:00 +4°C° 0 mm 1 mps 653 mmHg 70%
    12:00 +5°C° 0 mm 1 mps 652 mmHg 70%
    13:00 +5°C° 0 mm 1 mps 652 mmHg 70%
    14:00 +5°C° 0 mm 1 mps 652 mmHg 71%
    15:00 +5°C° 0 mm 1 mps 651 mmHg 71%
    16:00 +3°C° 0 mm 1 mps 651 mmHg 73%
    17:00 +2°C° 0 mm 1 mps 651 mmHg 75%
    18:00 +1°C° 0 mm 1 mps 651 mmHg 77%
    19:00 +1°C° 0 mm 1 mps 651 mmHg 76%
    20:00 +2°C° 0 mm 1 mps 651 mmHg 74%
    21:00 +2°C° 0 mm 1 mps 651 mmHg 73%
    22:00 +2°C° 0.1 mm 1 mps 651 mmHg 74%
    23:00 +1°C° 0.1 mm 1 mps 651 mmHg 76%

    23 December, Sunday

    Time Temperature Precipitation Wind Pressure Humidity
    00:00 +1°C° 0.1 mm 1 mps 651 mmHg 77%
    01:00 +1°C° 0.1 mm 1 mps 651 mmHg 79%
    02:00 +1°C° 0.1 mm 1 mps 651 mmHg 80%
    03:00 0°C° 0.1 mm 1 mps 651 mmHg 81%
    04:00 0°C° 0 mm 1 mps 651 mmHg 82%
    05:00 -1°C° 0 mm 1 mps 651 mmHg 83%
    06:00 -1°C° 0 mm 1 mps 651 mmHg 84%
    07:00 0°C° 0 mm 1 mps 652 mmHg 82%
    08:00 0°C° 0 mm 1 mps 652 mmHg 79%
    09:00 +1°C° 0 mm 1 mps 653 mmHg 76%
    10:00 +2°C° 0 mm 1 mps 653 mmHg 75%
    11:00 +2°C° 0 mm 1 mps 652 mmHg 73%
    12:00 +3°C° 0 mm 1 mps 652 mmHg 71%
    13:00 +3°C° 0 mm 1 mps 652 mmHg 70%
    14:00 +3°C° 0 mm 1 mps 652 mmHg 70%
    15:00 +3°C° 0 mm 1 mps 652 mmHg 70%
    16:00 +2°C° 0 mm 1 mps 652 mmHg 73%
    17:00 0°C° 0 mm 1 mps 652 mmHg 76%
    18:00 -1°C° 0 mm 1 mps 652 mmHg 79%
    19:00 -1°C° 0 mm 1 mps 652 mmHg 77%
    20:00 -1°C° 0 mm 1 mps 652 mmHg 76%
    21:00 -1°C° 0 mm 1 mps 652 mmHg 75%
    22:00 -3°C° 0 mm 2 mps 652 mmHg 74%
    23:00 -3°C° 0 mm 2 mps 652 mmHg 74%
    Show more